Regional Weather Roundup
Issued by NWS Grand Forks, ND

Home | Current Version | Previous Version | Text Only | Print | Product List | Glossary Off
Versions: 1 2 3 4 5 6 7 8 9 10 11 12 13 14 15 16 17 18 19 20 21 22 23 24 25 26 27 28 29 30 31 32 33 34 35 36 37 38 39 40 41 42 43 44 45 46 47 48 49 50

000
ASUS43 KFGF 301610
RWRFGF
PRAIRIE TO PINES  WEATHER ROUNDUP
NATIONAL WEATHER SERVICE EASTERN NORTH DAKOTA/GRAND FORKS ND
1100 AM CDT MON MAY 30 2016

 **SATELLITE DATA USED TO AUGMENT SKY COVER AT AUTOMATED STATIONS**
 *****  WEATHER ACROSS EASTERN NORTH DAKOTA  *****

CITY           SKY/WX    TMP DP  RH WIND       PRES   REMARKS
GRAND FORKS    PTSUNNY   70  54  56 SE7       29.90F
GRAND FRKS AFB MOSUNNY   72  54  52 S7        29.90S
GRAND FRKS NWS   N/A     68 N/A N/A SE6         N/A
DEVILS LAKE    SUNNY     72  55  55 SW6       29.90F
FARGO          SUNNY     78  53  41 S8        29.91F
WAHPETON ARPT  SUNNY     75  48  38 CALM      29.93F
$$

 ***** WEATHER ACROSS CENTRAL AND WESTERN NORTH DAKOTA  *****

CITY           SKY/WX    TMP DP  RH WIND       PRES   REMARKS
BISMARCK       SUNNY     72  57  59 SE7       29.88F
MINOT          CLOUDY    73  54  51 NE5       29.88S
JAMESTOWN      SUNNY     76  56  49 S7        29.89F
MINOT AFB      CLOUDY    69  52  55 E6        29.87F
GARRISON         N/A     65  51  60 CALM      29.89F
WILLISTON      CLOUDY    59  46  62 SW6       29.93S
DICKINSON      CLOUDY    57  49  74 NE16      29.86F
HETTINGER      PTSUNNY   66  55  67 SW14      29.92R
$$

 *****  OTHER AIRPORT OBSERVATIONS IN OUR AREA  *****

CITY           SKY/WX    TMP DP  RH WIND       PRES   REMARKS
WALHALLA       FAIR      72  68  88 NE7       29.90S
GRAFTON AIRPOR FAIR      73  54  49 S8        29.91F
VALLEY CITY AR FAIR      75  59  57 S8        29.93F
CANDO          NOT AVBL
CAVALIER APRT  FAIR      73  50  43 S6        29.90S
GWINNER        FAIR      77  55  47 S9        29.92F
SHEYENNE NWR     N/A     77  57  50 S7        29.95S
ROLLA            N/A     73  37  27 NW6       29.92S
 ***** THE ABOVE OBSERVATIONS ARE NON NWS ARE NOT QUALITY
       CONTROLLED AND MAY MIS-REPORT RAIN FOR SNOW...
$$

  *****  WEATHER ACROSS NORTHERN MINNESOTA  *****

CITY           SKY/WX    TMP DP  RH WIND       PRES   REMARKS
FLAG ISLAND    SUNNY     61  54  77 N7        29.94S
WARROAD        SUNNY     63  57  82 NE8       29.96S
ROSEAU         SUNNY     70  55  60 S3        29.94S
HALLOCK        SUNNY     72  54  53 S6        29.91S
THF RVR FALLS  MOSUNNY   73  52  46 SW16      29.95S
BAUDETTE       SUNNY     71  54  54 CALM      29.95S
WASKISH        SUNNY     70  50  49 W6        29.95F
CROOKSTON      PTSUNNY   70  55  60 S6        29.93F
STEPHEN NDAWN    N/A     73  55  53 S10         N/A
GREENBUSH NDAW   N/A     73  54  49 W5          N/A
$$
  *****  WEATHER ACROSS CENTRAL AND WEST MINNESOTA  *****

CITY           SKY/WX    TMP DP  RH WIND       PRES   REMARKS
FOSSTON        MOSUNNY   73  45  35 S6        29.95S
BEMIDJI        MOSUNNY   75  46  35 W3        29.96F
PARK RAPIDS    SUNNY     77  47  34 SW13      29.95F
ELBOW LAKE     FAIR      75  54  48 SE6       29.96S
WADENA         SUNNY     75  52  43 SW6       29.96F
DETROIT LAKES  SUNNY     73  50  43 W9        29.96F
MOORHEAD       SUNNY     75  54  46 SW6       29.92F
FERGUS FALLS   SUNNY     75  50  41 SW5       29.91F
MORRIS MN      SUNNY     79  55  44 SE6       29.94S
STAPLES        SUNNY     75  50  41 SW5       29.97F
$$
  *****  WEATHER ELSEWHERE ACROSS MINNESOTA  *****

CITY           SKY/WX    TMP DP  RH WIND       PRES   REMARKS
DULUTH         MOSUNNY   74  44  34 NW14      29.97S
INTRNTL FALLS  SUNNY     71  54  54 NW6       29.95S
ELY            SUNNY     68  52  56 W10G23    29.95F
CLOQUET        SUNNY     73  43  33 W7        29.98S
WHEATON        SUNNY     82  48  30 S8        29.94F
BRAINERD       SUNNY     76  48  37 VRB3      29.97F
HIBBING        SUNNY     72  46  39 W7        29.97S
ALEXANDRIA     SUNNY     75  51  43 CALM      29.98F
SAINT CLOUD    SUNNY     76  53  44 SW5       29.98S
MINNEAPOLIS    PTSUNNY   77  55  46 S6        30.00S
$$

  *****  WEATHER ACROSS SOUTH DAKOTA  *****

CITY           SKY/WX    TMP DP  RH WIND       PRES   REMARKS
SIOUX FALLS    PTSUNNY   74  55  51 S15G24    29.98F
BROOKINGS      MOSUNNY   72  57  59 S12       29.97F
WATERTOWN      MOSUNNY   74  55  51 S16       29.96S
HURON          CLOUDY    72  59  63 S16G25    29.91F
SISSETON         N/A     82  44  26 S14       29.91F
ABERDEEN       CLOUDY    77  55  46 S3        29.91F
MITCHELL       CLOUDY    72  57  59 SE23G31   29.95F
PIERRE         MOSUNNY   72  55  55 S22G29    29.86F
MOBRIDGE       CLOUDY    73  58  59 S13       29.84F
RAPID CITY     CLOUDY    69  56  62 SE6       29.85F
$$

  *****  SOME WEATHER IN NEARBY STATES *****

CITY           SKY/WX    TMP DP  RH WIND       PRES   REMARKS
GLASGOW MT     PTSUNNY   60  49  66 SW6       29.93R
GREAT FALLS MT CLOUDY    48  40  73 NW13      30.12R
CHEYENNE WY    SUNNY     69  38  32 NW5       30.06F
SCOTTSBLUFF NE SUNNY     72  49  44 NW5       29.96F
OMAHA NE       PTSUNNY   79  60  52 S8        29.99F
DES MOINES IA  MOSUNNY   80  61  52 CALM      30.01F
DAVENPORT IA   CLOUDY    78  61  55 SW12      30.08R
CHICAGO IL     MOSUNNY   79  60  52 SW10      30.03S
EAU CLAIRE WI  MOSUNNY   76  55  48 W7        30.01F
LA CROSSE WI   SUNNY     76  57  51 S6        30.03F
$$

  *****  SOME NATIONAL WEATHER *****

CITY           SKY/WX    TMP DP  RH WIND       PRES   REMARKS
LA GUARDIA NY  PTSUNNY   77  71  82 VRB5      29.96F
RALEIGH NC     CLOUDY    79  71  76 NE6       29.99F
ATLANTA GA     PTSUNNY   87  62  43 N9G20     30.04F
NEW ORLEANS LA MOSUNNY   88  70  55 N3        30.04S HX  93
OKLAHOMA CITY  PTSUNNY   71  65  81 VRB6      30.04F
ALBUQUERQUE NM PTSUNNY   68  40  35 W5        30.14F
SALT LAKE CITY MOSUNNY   68  42  38 VRB5      30.11R
LOS ANGELES CA CLOUDY    63  54  72 CALM      30.02R
BOISE ID       SUNNY     59  40  49 NW12      30.17S
SEATTLE WA     MOSUNNY   57  41  55 N12       30.32R
$$

*** WEATHER ACROSS MANITOBA...SASKATCHEWAN AND ONTARIO ***
                ***ONTARIO***

CITY           SKY/WX    TMP DP  RH WIND       PRES   REMARKS
GERALDTON      DRIZZLE   50  48  93 NW10      29.82R FOG
THUNDER BAY    MOSUNNY   68  50  52 NW16G24   29.87F
SIOUX LOOKOUT  PTSUNNY   54  48  82 N8G20     29.96S
TORONTO        PTSUNNY   79  57  47 W18G24    29.92R
BIG TROUT LK   SUNNY     52  27  37 NE10G18   30.01S
PICKLE LAKE    LGT RAIN  43  41  93 N5        29.97R
DRYDEN         CLOUDY    57  48  72 NW8       29.97S
KENORA         MOSUNNY   61  52  72 NE5       29.97S
$$
                *** MANITOBA***

CITY           SKY/WX    TMP DP  RH WIND       PRES   REMARKS
BRANDON        MOSUNNY   72  48  43 VRB3      29.90S
DAUPHIN        CLOUDY    55  54  94 NE7       29.94S
ISLAND LAKE    PTSUNNY   50  43  76 E3        30.06R
PILOT MOUND      N/A     70  45  40 NW3         N/A
THE PAS        DRIZZLE   52  50  93 N6        29.98R FOG
THOMPSON       CLOUDY    41  39  93 NE9       30.11R
WINNIPEG       MOSUNNY   68  54  60 E12       29.92S
LYNN LAKE        N/A     41  41 100 MISG      30.10R
CHURCHILL      FLURRIES  30  27  86 NE12      30.30R WCI  21
GILLAM         PTSUNNY   39  32  75 NE8       30.18R
$$
                ***SASKATCHEWAN***

CITY           SKY/WX    TMP DP  RH WIND       PRES   REMARKS
ESTEVAN        CLOUDY    66  48  52 SW6       29.90R
KINDERSLEY     LGT RAIN  50  48  93 E17G25    29.90R
LLOYDMINSTER   CLOUDY    54  50  87 NE7       29.99R
PRINCE ALBERT  PTSUNNY   55  46  71 E9        29.99R
REGINA         CLOUDY    64  46  52 E6        29.87F
YORKTON        CLOUDY    54  52  94 N14       29.92F
N. BATTLEFORD  PTSUNNY   57  46  67 E13G21    29.97S
LA RONGE       MOSUNNY   55  46  71 NE8       30.03R
SASKATOON      PTSUNNY   55  48  76 NE16      29.96R
SWIFT CURRENT  PTSUNNY   55  46  71 NW17      29.89S
$$
NOTE: THESE ARE AUTOMATED STATIONS WITH LIMITED QUALITY CONTROL
      "FAIR" INDICATES FEW OR NO CLOUDS BELOW 12,000 FEET WITH NO
      SIGNIFICANT WEATHER AND/OR OBSTRUCTIONS TO VISIBILITY.
      SKY/WX - SKY CONDITION AND SIGNIFICANT WEATHER.
      TMP - AIR TEMPERATURE.    DP   - DEWPOINT TEMPERATURE.
      RH  - RELATIVE HUMIDITY.  PRES - PRESSURE.
      HX  - HEAT INDEX.         WCI  - WIND CHILL INDEX.
$



USA.gov is the U.S. government's official web portal to all federal, state and local government web resources and services.